| time (UTC) | temp F | wind direction | speed knots | gust knots | rain 1hr in | rain 24hr in | rain mn in | humidity % | barometer mb |
| 20260507034455 | 0 | 0 | 1.7 | 3.5 | 0.00 | 0.00 | 0.00 | 1014.5 | |
| 20260507033456 | 0 | 23 | 1.7 | 4.3 | 0.00 | 0.00 | 0.00 | 1014.4 | |
| 20260507032455 | 0 | 19 | 1.7 | 4.3 | 0.00 | 0.00 | 0.00 | 1014.4 | |
| 20260507031458 | 0 | 14 | 1.7 | 4.3 | 0.00 | 0.00 | 0.00 | 1014.3 | |
| 20260507030454 | 0 | 339 | 1.7 | 3.5 | 0.00 | 0.00 | 0.00 | 1014.3 | |
| 20260507025456 | 0 | 346 | 1.7 | 3.5 | 0.00 | 0.00 | 0.00 | 1014.1 | |
| 20260507024455 | 0 | 348 | 1.7 | 5.2 | 0.00 | 0.00 | 0.00 | 1014.2 | |
| 20260507023456 | 0 | 352 | 1.7 | 4.3 | 0.00 | 0.00 | 0.00 | 1014.2 | |
| 20260507022454 | 0 | 34 | 1.7 | 4.3 | 0.00 | 0.00 | 0.00 | 1014.0 | |
| 20260507021455 | 0 | 34 | 1.7 | 4.3 | 0.00 | 0.00 | 0.00 | 1013.9 | |
| 20260507020456 | 0 | 19 | 1.7 | 5.2 | 0.00 | 0.00 | 0.00 | 1013.8 | |
| 20260507015456 | 0 | 358 | 1.7 | 3.5 | 0.00 | 0.00 | 0.00 | 1013.8 | |
| 20260507014936 | 0 | 13 | 1.7 | 4.3 | 0.00 | 0.00 | 0.00 | 1013.8 | |
| 20260507013930 | 0 | 13 | 1.7 | 5.2 | 0.00 | 0.00 | 0.00 | 1013.8 | |
| 20260507012452 | 0 | 17 | 2.6 | 5.2 | 0.00 | 0.00 | 0.00 | 1013.9 | |
| 20260507011450 | 0 | 13 | 2.6 | 5.2 | 0.00 | 0.00 | 0.00 | 1013.8 | |
| 20260507010450 | 0 | 19 | 1.7 | 5.2 | 0.00 | 0.00 | 0.00 | 1013.8 | |
| 20260507005920 | 0 | 34 | 1.7 | 4.3 | 0.00 | 0.00 | 0.00 | 1013.8 | |
| 20260507004448 | 0 | 22 | 1.7 | 4.3 | 0.00 | 0.00 | 0.00 | 1013.8 | |
| 20260507003934 | 0 | 341 | 1.7 | 5.2 | 0.00 | 0.00 | 0.00 | 1013.8 | |
| 20260507002446 | 0 | 30 | 1.7 | 4.3 | 0.00 | 0.00 | 0.00 | 1013.8 | |
| 20260507001444 | 0 | 334 | 2.6 | 5.2 | 0.00 | 0.00 | 0.00 | 1013.8 | |
| 20260507000442 | 0 | 38 | 1.7 | 5.2 | 0.00 | 0.00 | 0.00 | 1013.7 | |
| 20260506235441 | 0 | 19 | 0.9 | 4.3 | 0.00 | 0.00 | 0.00 | 1013.8 | |
| 20260506234441 | 0 | 352 | 1.7 | 4.3 | 0.00 | 0.00 | 0.00 | 1013.8 | |
| 20260506233439 | 0 | 14 | 1.7 | 6.1 | 0.00 | 0.00 | 0.00 | 1013.7 | |
| 20260506232441 | 43 | 37 | 2.6 | 6.1 | 0.00 | 0.00 | 0.00 | 91 | 1013.8 |
| 20260506231438 | 43 | 29 | 1.7 | 3.5 | 0.00 | 0.00 | 0.00 | 90 | 1013.8 |
| 20260506230452 | 0 | 356 | 1.7 | 5.2 | 0.00 | 0.00 | 0.00 | 1013.8 | |
| 20260506225439 | 44 | 19 | 1.7 | 4.3 | 0.00 | 0.00 | 0.00 | 89 | 1013.7 |
| 20260506224437 | 0 | 19 | 1.7 | 4.3 | 0.00 | 0.00 | 0.00 | 1013.6 | |
| 20260506223437 | 0 | 26 | 1.7 | 7.8 | 0.00 | 0.00 | 0.00 | 1013.6 | |
| 20260506222436 | 44 | 19 | 1.7 | 5.2 | 0.00 | 0.00 | 0.00 | 89 | 1013.6 |
| 20260506221432 | 44 | 335 | 1.7 | 5.2 | 0.00 | 0.00 | 0.00 | 89 | 1013.5 |
| 20260506221214 | 44 | 26 | 2.6 | 5.2 | 0.00 | 0.00 | 0.00 | 89 | 1013.5 |
| 20260506215432 | 0 | 14 | 3.5 | 6.1 | 0.00 | 0.00 | 0.00 | 1013.4 | |
| 20260506214433 | 45 | 7 | 3.5 | 6.1 | 0.00 | 0.00 | 0.00 | 89 | 1013.4 |
| 20260506213433 | 45 | 26 | 3.5 | 7.8 | 0.00 | 0.00 | 0.00 | 89 | 1013.5 |
| 20260506212433 | 45 | 27 | 2.6 | 7.8 | 0.00 | 0.00 | 0.00 | 89 | 1013.5 |
| 20260506211434 | 45 | 341 | 1.7 | 5.2 | 0.00 | 0.00 | 0.00 | 90 | 1013.2 |
| 20260506210431 | 45 | 33 | 3.5 | 6.1 | 0.00 | 0.00 | 0.00 | 90 | 1013.2 |
| 20260506205431 | 45 | 38 | 3.5 | 7.8 | 0.00 | 0.00 | 0.00 | 90 | 1013.2 |
| 20260506204912 | 46 | 20 | 3.5 | 8.7 | 0.00 | 0.00 | 0.00 | 89 | 1013.2 |
| 20260506203431 | 46 | 30 | 3.5 | 7.8 | 0.00 | 0.00 | 0.00 | 89 | 1013.2 |
| 20260506202432 | 46 | 12 | 2.6 | 6.1 | 0.00 | 0.00 | 0.00 | 89 | 1013.2 |
| 20260506201432 | 46 | 29 | 1.7 | 6.1 | 0.00 | 0.00 | 0.00 | 89 | 1013.1 |
| 20260506200431 | 47 | 41 | 4.3 | 9.6 | 0.00 | 0.00 | 0.00 | 88 | 1013.0 |
| 20260506195432 | 47 | 13 | 3.5 | 7.8 | 0.00 | 0.00 | 0.00 | 87 | 1012.9 |
| 20260506194434 | 47 | 24 | 3.5 | 9.6 | 0.00 | 0.00 | 0.00 | 86 | 1012.8 |
| 20260506193911 | 47 | 34 | 3.5 | 9.6 | 0.00 | 0.00 | 0.00 | 86 | 1012.7 |
| 20260506192431 | 48 | 31 | 3.5 | 7.8 | 0.00 | 0.00 | 0.00 | 85 | 1012.6 |
| 20260506191432 | 49 | 26 | 5.2 | 8.7 | 0.00 | 0.00 | 0.00 | 84 | 1012.4 |
| 20260506190434 | 49 | 12 | 7.0 | 11.3 | 0.00 | 0.00 | 0.00 | 83 | 1012.3 |
| 20260506185432 | 50 | 44 | 6.1 | 13.0 | 0.00 | 0.00 | 0.00 | 82 | 1012.2 |
| 20260506184431 | 50 | 31 | 6.1 | 11.3 | 0.00 | 0.00 | 0.00 | 81 | 1012.2 |
| 20260506183432 | 51 | 33 | 5.2 | 9.6 | 0.00 | 0.00 | 0.00 | 79 | 1012.0 |
| 20260506182433 | 51 | 321 | 4.3 | 12.2 | 0.00 | 0.00 | 0.00 | 77 | 1011.9 |
| 20260506181431 | 52 | 31 | 5.2 | 12.2 | 0.00 | 0.00 | 0.00 | 75 | 1011.8 |
| 20260506180431 | 52 | 41 | 3.5 | 13.9 | 0.00 | 0.00 | 0.00 | 73 | 1011.6 |
| 20260506175920 | 53 | 26 | 6.1 | 14.8 | 0.00 | 0.00 | 0.00 | 72 | 1011.6 |
| 20260506174432 | 54 | 41 | 4.3 | 13.9 | 0.00 | 0.00 | 0.00 | 71 | 1011.5 |
| 20260506173921 | 54 | 48 | 3.5 | 14.8 | 0.00 | 0.00 | 0.00 | 71 | 1011.3 |
| 20260506172434 | 55 | 10 | 7.0 | 12.2 | 0.00 | 0.00 | 0.00 | 68 | 1011.2 |
| 20260506171913 | 55 | 34 | 5.2 | 11.3 | 0.00 | 0.00 | 0.00 | 66 | 1011.2 |
| 20260506170916 | 56 | 33 | 6.1 | 13.9 | 0.00 | 0.00 | 0.00 | 65 | 1011.1 |
| 20260506165433 | 56 | 57 | 8.7 | 14.8 | 0.00 | 0.00 | 0.00 | 65 | 1011.0 |
| 20260506164431 | 57 | 40 | 6.1 | 13.9 | 0.00 | 0.00 | 0.00 | 64 | 1011.1 |
| 20260506163429 | 57 | 41 | 5.2 | 16.5 | 0.00 | 0.00 | 0.00 | 63 | 1011.1 |
| 20260506162428 | 57 | 30 | 8.7 | 16.5 | 0.00 | 0.00 | 0.00 | 62 | 1011.1 |
| 20260506161429 | 57 | 74 | 5.2 | 14.8 | 0.00 | 0.00 | 0.00 | 64 | 1011.1 |
| 20260506160428 | 56 | 34 | 8.7 | 14.8 | 0.00 | 0.00 | 0.00 | 67 | 1011.1 |
| 20260506155425 | 55 | 34 | 7.0 | 14.8 | 0.00 | 0.00 | 0.00 | 67 | 1010.9 |
| 20260506154424 | 0 | 67 | 7.0 | 16.5 | 0.00 | 0.00 | 0.00 | 1010.9 | |
| 20260506153421 | 0 | 24 | 7.0 | 14.8 | 0.00 | 0.00 | 0.00 | 1010.9 | |
| 20260506152423 | 58 | 33 | 8.7 | 15.6 | 0.00 | 0.00 | 0.00 | 68 | 1011.0 |
| 20260506151418 | 57 | 51 | 7.8 | 14.8 | 0.00 | 0.00 | 0.00 | 68 | 1010.8 |
| 20260506150418 | 0 | 51 | 7.0 | 13.9 | 0.00 | 0.00 | 0.00 | 1010.8 | |
| 20260506145418 | 57 | 34 | 8.7 | 13.9 | 0.00 | 0.00 | 0.00 | 68 | 1010.8 |
| 20260506144418 | 59 | 27 | 8.7 | 13.9 | 0.00 | 0.00 | 0.00 | 67 | 1010.7 |
| 20260506143416 | 60 | 55 | 9.6 | 16.5 | 0.00 | 0.00 | 0.00 | 65 | 1010.7 |
| 20260506142417 | 60 | 44 | 8.7 | 14.8 | 0.00 | 0.00 | 0.00 | 67 | 1010.6 |
| 20260506141413 | 59 | 38 | 9.6 | 16.5 | 0.00 | 0.00 | 0.00 | 69 | 1010.6 |
| 20260506140410 | 58 | 30 | 7.8 | 14.8 | 0.00 | 0.00 | 0.00 | 71 | 1010.7 |
| 20260506135410 | 57 | 36 | 7.0 | 16.5 | 0.00 | 0.00 | 0.00 | 69 | 1010.7 |
| 20260506134847 | 59 | 34 | 7.0 | 16.5 | 0.00 | 0.00 | 0.00 | 68 | 1010.6 |
| 20260506133407 | 59 | 31 | 8.7 | 16.5 | 0.00 | 0.00 | 0.00 | 67 | 1010.4 |
| 20260506132409 | 59 | 33 | 10.4 | 15.6 | 0.00 | 0.00 | 0.00 | 68 | 1010.6 |
| 20260506131407 | 59 | 54 | 7.8 | 14.8 | 0.00 | 0.00 | 0.00 | 68 | 1010.5 |
| 20260506130408 | 58 | 37 | 8.7 | 18.2 | 0.00 | 0.00 | 0.00 | 68 | 1010.4 |
| 20260506124406 | 59 | 43 | 7.0 | 17.4 | 0.00 | 0.00 | 0.00 | 65 | 1010.3 |
| 20260506123406 | 60 | 65 | 6.1 | 18.2 | 0.00 | 0.00 | 0.00 | 65 | 1010.3 |
| 20260506122405 | 60 | 69 | 9.6 | 18.2 | 0.00 | 0.00 | 0.00 | 63 | 1010.3 |
| 20260506121850 | 60 | 7 | 7.8 | 17.4 | 0.00 | 0.00 | 0.00 | 66 | 1010.3 |
| 20260506120407 | 60 | 34 | 9.6 | 19.1 | 0.00 | 0.00 | 0.00 | 66 | 1010.1 |
| 20260506115413 | 60 | 26 | 8.7 | 14.8 | 0.00 | 0.00 | 0.00 | 67 | 1010.2 |
| 20260506114403 | 59 | 57 | 7.0 | 15.6 | 0.00 | 0.00 | 0.00 | 65 | 1010.2 |
| 20260506112406 | 58 | 60 | 8.7 | 14.8 | 0.00 | 0.00 | 0.00 | 67 | 1010.1 |
| 20260506111404 | 58 | 17 | 6.1 | 16.5 | 0.00 | 0.00 | 0.00 | 68 | 1010.1 |
| 20260506110405 | 59 | 36 | 7.8 | 13.0 | 0.00 | 0.00 | 0.00 | 68 | 1010.1 |
| 20260506105405 | 60 | 43 | 6.1 | 15.6 | 0.00 | 0.00 | 0.00 | 65 | 1010.0 |
| 20260506104403 | 61 | 78 | 7.8 | 13.9 | 0.00 | 0.00 | 0.00 | 69 | 1010.1 |
| 20260506103404 | 59 | 82 | 5.2 | 13.9 | 0.00 | 0.00 | 0.00 | 63 | 1010.1 |
| 20260506102407 | 59 | 14 | 10.4 | 19.1 | 0.00 | 0.00 | 0.00 | 68 | 1009.9 |
| 20260506101405 | 59 | 16 | 8.7 | 14.8 | 0.00 | 0.00 | 0.00 | 71 | 1010.0 |
| 20260506100403 | 58 | 38 | 5.2 | 13.0 | 0.00 | 0.00 | 0.00 | 71 | 1010.0 |
| 20260506095403 | 58 | 38 | 5.2 | 11.3 | 0.00 | 0.00 | 0.00 | 74 | 1009.9 |
| 20260506094403 | 56 | 43 | 6.1 | 11.3 | 0.00 | 0.00 | 0.00 | 71 | 1009.9 |
| 20260506093402 | 57 | 38 | 8.7 | 16.5 | 0.00 | 0.00 | 0.00 | 73 | 1009.8 |
| 20260506092402 | 57 | 65 | 6.1 | 17.4 | 0.00 | 0.00 | 0.00 | 72 | 1009.8 |
| 20260506091847 | 57 | 72 | 6.1 | 13.0 | 0.00 | 0.00 | 0.00 | 71 | 1009.8 |
| 20260506090410 | 58 | 27 | 5.2 | 13.0 | 0.00 | 0.00 | 0.00 | 74 | 1009.7 |
| 20260506085400 | 56 | 43 | 7.0 | 16.5 | 0.00 | 0.00 | 0.00 | 73 | 1009.9 |
| 20260506084359 | 56 | 27 | 7.8 | 15.6 | 0.00 | 0.00 | 0.00 | 73 | 1009.8 |
| 20260506083400 | 55 | 24 | 4.3 | 15.6 | 0.00 | 0.00 | 0.00 | 73 | 1009.7 |
| 20260506082834 | 55 | 54 | 7.8 | 13.9 | 0.00 | 0.00 | 0.00 | 75 | 1009.7 |
| 20260506081359 | 55 | 64 | 5.2 | 13.9 | 0.00 | 0.00 | 0.00 | 77 | 1009.6 |
| 20260506080356 | 55 | 51 | 7.8 | 14.8 | 0.00 | 0.00 | 0.00 | 79 | 1009.6 |
| 20260506073358 | 54 | 16 | 7.8 | 12.2 | 0.00 | 0.00 | 0.00 | 83 | 1009.5 |
| 20260506072409 | 53 | 62 | 5.2 | 10.4 | 0.00 | 0.00 | 0.00 | 84 | 1009.5 |
| 20260506071357 | 53 | 33 | 5.2 | 12.2 | 0.00 | 0.00 | 0.00 | 85 | 1009.6 |
| 20260506070357 | 52 | 37 | 7.8 | 13.9 | 0.00 | 0.00 | 0.00 | 86 | 1009.5 |
| 20260506062229 | 50 | 27 | 5.2 | 11.3 | 0.00 | 0.00 | 0.00 | 92 | 1009.3 |
| 20260506060751 | 50 | 40 | 5.2 | 10.4 | 0.00 | 0.00 | 0.00 | 92 | 1009.3 |
| 20260506051234 | 48 | 303 | 3.5 | 8.7 | 0.00 | 0.00 | 0.00 | 90 | 1009.2 |
| 20260506044223 | 48 | 40 | 5.2 | 10.4 | 0.00 | 0.00 | 0.00 | 90 | 1009.3 |
| 20260506043224 | 48 | 27 | 3.5 | 8.7 | 0.00 | 0.00 | 0.00 | 89 | 1009.3 |
| 20260506042223 | 48 | 29 | 3.5 | 11.3 | 0.00 | 0.00 | 0.00 | 89 | 1009.3 |
| 20260506041223 | 48 | 31 | 5.2 | 9.6 | 0.00 | 0.00 | 0.00 | 89 | 1009.4 |
| 20260506035745 | 49 | 47 | 4.3 | 8.7 | 0.00 | 0.00 | 0.00 | 89 | 1009.3 |
| 20260506034743 | 49 | 26 | 3.5 | 10.4 | 0.00 | 0.00 | 0.00 | 89 | 1009.3 |